Skip Page Navigation
NASA JPL Caltech
NASA Logo - Jet Propulsion Laboratory + View the NASA Portal
+ Center for Near-Earth Object Studies
JPL Home Earth Solar System Stars & Galaxies Technology
JPL Solar System Dynamics
BODIES ORBITS EPHEMERIDES TOOLS PHYSICAL DATA DISCOVERY FAQ SITE MAP
JPL Small-Body Database Browser
Search: [ help ]  
452537 (2004 TF215)
Classification: Main-belt Asteroid          SPK-ID: 2452537
Ephemeris | Orbit Diagram | Orbital Elements | Mission Design | Physical Parameters | Discovery Circumstances ]

[ show orbit diagram ]
Orbital Elements at Epoch 2459000.5 (2020-May-31.0) TDB
Reference: JPL 9 (heliocentric ecliptic J2000)
 Element Value Uncertainty (1-sigma)   Units 
e .1633650212735434 5.139e-08  
a 2.332545423569953 1.7264e-08 au
q 1.951489090826942 1.1627e-07 au
i 1.730427368958717 8.2596e-06 deg
node 322.0183862402188 0.0001845 deg
peri 88.46310134981393 0.00018756 deg
M 111.5504297558885 3.1692e-05 deg
tp 2458597.307598670540
(2019-Apr-23.80759867)
0.00011212 TDB
period 1301.198613006181
3.56
1.4446e-05
3.955e-08
d
yr
n .2766679862717391 3.0716e-09 deg/d
Q 2.713601756312964 2.0085e-08 au
  Orbit Determination Parameters
   # obs. used (total)      90  
   data-arc span      6584 days (18.03 yr)  
   first obs. used      2002-01-22  
   last obs. used      2020-02-01  
   planetary ephem.      DE431  
   SB-pert. ephem.      SB431-N16  
   condition code      0  
   norm. resid. RMS      .55788  
   source      ORB  
   producer      Otto Matic  
   solution date      2020-Feb-26 11:36:10  

Additional Information
 Earth MOID = .962931 au 
 Jupiter MOID = 2.64736 au 
 T_jup = 3.551 
[ show covariance matrix ]

Ephemeris | Orbit Diagram | Orbital Elements | Mission Design | Physical Parameters | Discovery Circumstances ]

Physical Parameter Table
Parameter Symbol Value Units Sigma Reference Notes
absolute magnitude H 18.2   n/a MPO456155  

452537 (2004 TF215)          Discovered 2004-Oct-10 by Spacewatch at Kitt Peak
Reference: Last Updated: 2016-01-04

Alternate Designations
 2004 TF215 = 2011 SO29 
Ephemeris | Orbit Diagram | Orbital Elements | Mission Design | Physical Parameters | Discovery Circumstances ]
ABOUT SSD CREDITS/AWARDS PRIVACY/COPYRIGHT GLOSSARY LINKS
FirstGov 2020-Aug-11 16:21 UT
(server date/time)  
NASA Home Page
Site Manager:   Ryan S. Park
Webmaster  Alan B. Chamberlin